[[{"header":{"parameterUnit":"m.s-1","parameterCategory":1,"la1":30.2991,"la2":30.254,"lo1":-89.0895,"lo2":-89.0444,"dy":0.0017,"dx":0.0017,"nx":28,"ny":28,"refTime":"2025-07-09T03:00:00:Z","depth":0,"parameterNumber":2,"parameterNumberName":"U-component_of_WINDS"},"data":[0,0,0,0,0,0,0,0,0,0,0,0,0,0,0,0,0,0,0,0,0,0,0,0,0,0,0,0,0,0,0,0,0,0,0,0,0,0,0,0,0,0,0,0,0,0,0,0,0,0,0,0,0,0,0,0,0,0,3.4133,3.4133,0,3.4197,3.4198,3.4198,3.4172,3.417,3.4169,3.4167,3.4238,3.4241,3.4245,0,0,0,0,0,0,0,0,0,0,0,0,0,3.3991,3.3994,3.4133,3.4133,3.4134,3.4197,3.4198,3.4199,3.4172,3.417,3.4168,3.4166,3.4237,3.4241,3.4245,0,0,0,0,0,0,0,0,0,0,0,0,0,3.4054,3.3995,3.4133,3.4128,3.4129,3.4197,3.4198,3.4199,3.4172,3.417,3.4168,3.4166,3.4236,3.424,3.4245,3.4323,0,0,3.4261,3.4263,0,0,0,0,0,0,0,0,3.4051,3.4059,3.4128,3.4129,3.4129,3.4174,3.4174,3.4241,3.4173,3.4156,3.4167,3.4164,3.4219,3.4225,3.4242,3.4326,3.4329,3.4261,3.4264,3.4266,3.4268,0,0,0,0,0,0,0,3.4046,3.4056,3.4158,3.4129,3.413,3.4125,3.4131,3.4186,3.42,3.4157,3.4155,3.4163,3.4219,3.4238,3.4244,3.433,3.4261,3.4265,3.4268,3.427,3.448,3.4483,0,0,0,0,0,0,3.4041,3.4053,3.4156,3.416,3.4083,3.4129,3.4136,3.4162,3.4199,3.4202,3.4165,3.4162,3.423,3.4238,3.4246,3.4338,3.4266,3.4271,3.4274,3.4478,3.4481,3.4484,0,0,0,0,0,0,3.4038,3.4051,3.4154,3.4106,3.4119,3.4134,3.4163,3.4164,3.4183,3.4205,3.4208,3.4182,3.4229,3.4239,3.4303,3.434,3.4273,3.4278,3.4475,3.4479,3.4482,3.4523,0,0,0,0,0,0,3.4034,3.405,3.4078,3.4107,3.4121,3.4208,3.4165,3.4167,3.4191,3.4187,3.4221,3.4225,3.4228,3.4296,3.4308,3.4346,3.4282,3.4471,3.4476,3.4481,3.4519,3.4528,3.4536,0,0,0,0,0,3.4029,3.4088,3.408,3.4092,3.4157,3.421,3.4219,3.422,3.4194,3.4224,3.4238,3.4224,3.4335,3.4303,3.4317,3.4356,3.4469,3.4475,3.4481,3.4515,3.4526,3.4536,0,0,0,0,0,0,3.4065,3.4092,3.4083,3.4152,3.4179,3.4206,3.4242,3.4232,3.4268,3.4263,3.4264,3.4272,3.4338,3.4354,3.4318,3.4433,3.4398,3.4407,3.442,3.4431,3.4439,3.4433,3.4286,0,0,0,0,0,3.4081,3.4121,3.4143,3.4202,3.4216,3.4227,3.4251,3.4249,3.4277,3.4289,3.4308,3.4337,3.4378,3.4406,3.4445,3.4522,3.4528,3.4556,3.4565,3.4572,3.4579,3.4619,3.4631,3.4503,3.4503,3.4502,0,0,3.4115,3.4134,3.4159,3.421,3.423,3.4273,3.4237,3.4283,3.4315,3.4297,3.4357,3.4372,3.4406,3.4476,3.4508,3.4491,3.4616,3.4579,3.4584,3.4588,3.4626,3.4639,3.4649,3.4507,3.4506,3.4505,0,0,3.4196,3.4215,3.4266,3.4287,3.4318,3.4325,3.4338,3.4366,3.4375,3.4435,3.4422,3.4461,3.4533,3.4556,3.4578,3.4669,3.4657,3.4683,3.4727,3.4767,3.4777,3.4786,3.4817,3.4829,3.469,3.469,3.469,0,3.4234,3.4295,3.4294,3.4341,3.4364,3.4348,3.44,3.4422,3.4465,3.4481,3.4462,3.4551,3.4572,3.4647,3.4669,3.4688,3.4702,3.4678,3.4775,3.4785,3.4793,3.4823,3.4835,3.4693,3.4692,3.4692,3.4692,0,3.434,3.4383,3.4421,3.446,3.4488,3.4537,3.4545,3.4573,3.457,3.4579,3.4642,3.4667,3.471,3.4729,3.4727,3.4804,3.4792,3.4774,3.4739,3.4808,3.4836,3.4847,3.4697,3.4696,3.4695,3.4694,0,0,3.4444,3.4483,3.4496,3.4514,3.4547,3.4581,3.4631,3.4672,3.4695,3.4727,3.4768,3.4829,3.4812,3.4837,3.4838,3.4873,3.4942,3.485,3.4851,3.4865,3.5027,3.5038,3.5052,3.4935,3.4937,3.4939,3.5023,0,3.4527,3.4611,3.4612,3.469,3.4729,3.4716,3.4759,3.4785,3.4795,3.4832,3.4844,3.4887,3.4862,3.4877,3.4911,3.4926,3.4974,3.492,3.4973,3.4975,3.4963,3.5066,3.5079,3.5157,3.5035,3.5037,3.5038,0,3.4634,3.4666,3.4747,3.4774,3.4791,3.4829,3.4867,3.4902,3.4931,3.4937,3.4964,3.496,3.5011,3.4976,3.5047,3.501,3.5032,3.5043,3.5046,3.505,3.5009,3.5071,3.5183,3.5194,3.5055,3.5054,3.5053,0,3.47,3.4764,3.482,3.4836,3.487,3.4897,3.4912,3.4939,3.4964,3.4998,3.5014,3.5054,3.5076,3.5108,3.5115,3.5088,3.5186,3.5151,3.5191,3.5191,3.5211,3.5209,3.5326,3.5229,3.5228,3.5228,3.5228,0,3.4791,3.484,3.485,3.4884,3.494,3.4942,3.4998,3.5012,3.5036,3.5074,3.5066,3.5102,3.511,3.5148,3.5154,3.5211,3.5222,3.5228,3.5229,3.5228,3.5226,3.5241,3.5235,3.5231,3.5231,3.523,3.523,0,3.4872,3.4881,3.4941,3.4968,3.4976,3.5015,3.5039,3.5073,3.5083,3.5131,3.5142,3.5159,3.5203,3.5213,3.5267,3.5271,3.5338,3.5335,3.5327,3.5327,3.5366,3.5361,3.5494,3.5511,3.5405,3.5406,3.5406,0,3.4928,3.4966,3.4996,3.502,3.5037,3.5076,3.51,3.5105,3.5131,3.5168,3.5197,3.524,3.5274,3.5346,3.5364,3.5405,3.5401,3.5445,3.5407,3.5404,3.54,3.5396,3.54,3.5451,3.5452,3.5453,3.5454,0,3.5027,3.5029,3.5064,3.5101,3.513,3.5159,3.5187,3.5208,3.5216,3.5247,3.5291,3.5318,3.5371,3.5414,3.5455,3.5473,3.5465,3.5466,3.5477,3.5475,3.5468,3.5471,3.5345,3.5463,3.5462,3.5461,3.5461,3.546,3.5096,3.5128,3.5154,3.5194,3.5215,3.5242,3.5274,3.5288,3.5325,3.5367,3.5369,3.5417,3.5446,3.55,3.552,3.5559,3.5545,3.5562,3.5566,3.5569,3.5572,3.5464,3.5567,3.5566,3.5566,3.5566,3.5566,0,3.5192,3.5208,3.5244,3.5283,3.5314,3.5304,3.5335,3.5361,3.5403,3.5431,3.5464,3.5515,3.5557,3.5578,3.562,3.5646,3.5644,3.5657,3.5654,3.5658,3.5582,3.5567,3.5658,3.5658,3.5658,3.5658,3.5658,3.5658,3.5245,3.5299,3.5305,3.537,3.5386,3.5432,3.545,3.5475,3.5497,3.5553,3.5587,3.56,3.5625,3.5669,3.5707,3.5712,3.5727,3.5741,3.5745,3.5673,3.5664,3.5655,3.564,3.5745,3.5745,3.5817,3.5818,3.5818]},{"header":{"parameterUnit":"m.s-1","parameterCategory":1,"la1":30.2991,"la2":30.254,"lo1":-89.0895,"lo2":-89.0444,"dy":0.0017,"dx":0.0017,"nx":28,"ny":28,"refTime":"2025-07-09T03:00:00:Z","depth":0,"parameterNumber":3,"parameterNumberName":"V-component_of_WINDS"},"data":[0,0,0,0,0,0,0,0,0,0,0,0,0,0,0,0,0,0,0,0,0,0,0,0,0,0,0,0,0,0,0,0,0,0,0,0,0,0,0,0,0,0,0,0,0,0,0,0,0,0,0,0,0,0,0,0,0,0,3.6558,3.6559,0,3.6629,3.663,3.6631,3.668,3.668,3.668,3.6681,3.6747,3.6749,3.675,0,0,0,0,0,0,0,0,0,0,0,0,0,3.6456,3.6458,3.6558,3.6559,3.656,3.6629,3.663,3.6631,3.668,3.668,3.6681,3.6681,3.6747,3.6748,3.675,0,0,0,0,0,0,0,0,0,0,0,0,0,3.6511,3.6458,3.6558,3.6593,3.6596,3.6629,3.663,3.6632,3.668,3.668,3.6681,3.6681,3.6746,3.6748,3.675,3.6752,0,0,3.6757,3.6758,0,0,0,0,0,0,0,0,3.6508,3.6514,3.6587,3.659,3.6595,3.6646,3.6619,3.6672,3.6679,3.6648,3.6681,3.6681,3.6713,3.6718,3.673,3.6755,3.6758,3.6757,3.6758,3.6759,3.676,0,0,0,0,0,0,0,3.6504,3.6512,3.6586,3.6588,3.6592,3.6602,3.661,3.6629,3.6676,3.6651,3.6654,3.6662,3.6715,3.6727,3.6731,3.6759,3.6757,3.6759,3.676,3.6761,3.6787,3.6787,0,0,0,0,0,0,3.6496,3.6508,3.6584,3.6588,3.6552,3.6603,3.6613,3.6629,3.6676,3.6684,3.6662,3.6664,3.6723,3.6729,3.6734,3.6738,3.6759,3.6761,3.6762,3.6788,3.6787,3.6786,0,0,0,0,0,0,3.6493,3.6502,3.6581,3.6549,3.656,3.6605,3.6622,3.663,3.6643,3.6685,3.6693,3.6666,3.6724,3.6731,3.6747,3.6741,3.6762,3.6764,3.6788,3.6787,3.6787,3.6746,0,0,0,0,0,0,3.649,3.6501,3.6504,3.6549,3.6562,3.6595,3.6622,3.6631,3.6647,3.6651,3.6691,3.6698,3.6725,3.6744,3.6749,3.6744,3.6766,3.6789,3.6788,3.6787,3.6748,3.6744,3.6741,0,0,0,0,0,3.6486,3.6489,3.6504,3.6513,3.6567,3.6595,3.6602,3.6635,3.6647,3.6649,3.6675,3.6697,3.6741,3.6745,3.6752,3.6747,3.679,3.6788,3.6787,3.675,3.6745,3.6741,0,0,0,0,0,0,3.644,3.6496,3.6513,3.6531,3.6558,3.6603,3.6607,3.6629,3.6652,3.6654,3.6692,3.67,3.6712,3.6731,3.6735,3.675,3.6768,3.6768,3.6737,3.6733,3.6729,3.6724,3.6767,0,0,0,0,0,3.6432,3.6453,3.6499,3.651,3.6523,3.6563,3.6576,3.6599,3.6628,3.6639,3.6667,3.6692,3.6711,3.6723,3.6743,3.6751,3.6759,3.6751,3.6747,3.6744,3.6743,3.6746,3.6743,3.6782,3.6782,3.6782,0,0,3.6416,3.6449,3.6459,3.6502,3.6526,3.6543,3.6572,3.659,3.6603,3.6641,3.6659,3.6679,3.6709,3.6721,3.6728,3.6737,3.6734,3.6742,3.6739,3.674,3.6745,3.6741,3.6738,3.6781,3.6781,3.6782,0,0,3.6395,3.6423,3.6435,3.6458,3.6494,3.652,3.6522,3.6564,3.658,3.6598,3.6627,3.6641,3.6674,3.6694,3.6708,3.6692,3.6712,3.6698,3.6677,3.668,3.6677,3.6674,3.6667,3.6664,3.6697,3.6697,3.6697,0,3.637,3.64,3.6437,3.6453,3.647,3.6507,3.6517,3.6537,3.6577,3.6586,3.6597,3.6638,3.6661,3.6677,3.6673,3.6684,3.6686,3.6693,3.6675,3.6672,3.667,3.6664,3.6661,3.6695,3.6695,3.6695,3.6695,0,3.6366,3.6386,3.639,3.643,3.6447,3.6459,3.6496,3.6508,3.6529,3.6552,3.6569,3.6598,3.6624,3.6629,3.6649,3.6647,3.6652,3.6668,3.6686,3.6664,3.6658,3.6656,3.6692,3.6692,3.6693,3.6694,0,0,3.6319,3.6378,3.6379,3.6396,3.6437,3.6452,3.6465,3.6492,3.6501,3.6526,3.6537,3.6563,3.6578,3.6594,3.6616,3.6619,3.6602,3.6635,3.6636,3.6626,3.6599,3.6586,3.6582,3.6616,3.6615,3.6615,3.6596,0,3.6303,3.6332,3.6364,3.638,3.6397,3.6432,3.6442,3.6467,3.6489,3.6505,3.6528,3.6546,3.6565,3.6575,3.6579,3.6603,3.6597,3.6605,3.6623,3.6623,3.6614,3.658,3.6566,3.6547,3.6594,3.6594,3.6593,0,3.629,3.6315,3.6333,3.6371,3.6379,3.6389,3.6415,3.6431,3.6458,3.6474,3.6491,3.6515,3.6527,3.6544,3.656,3.6565,3.6574,3.6586,3.6586,3.6589,3.6606,3.6579,3.6541,3.6538,3.6591,3.6591,3.6591,0,3.6252,3.629,3.6305,3.6319,3.6364,3.637,3.6388,3.6417,3.643,3.6452,3.646,3.6483,3.6494,3.651,3.6538,3.6548,3.655,3.657,3.6561,3.656,3.656,3.6559,3.6521,3.6567,3.6567,3.6567,3.6567,0,3.6231,3.624,3.6289,3.6298,3.6308,3.6343,3.6352,3.6373,3.6398,3.6409,3.644,3.6449,3.6487,3.65,3.6522,3.653,3.6536,3.6547,3.6552,3.6544,3.6542,3.6549,3.6551,3.6567,3.6567,3.6567,3.6567,0,3.619,3.6224,3.6242,3.6283,3.6294,3.6299,3.6333,3.6341,3.6365,3.6379,3.6384,3.642,3.6437,3.6467,3.6492,3.6506,3.651,3.652,3.6501,3.6504,3.6494,3.6494,3.6458,3.6455,3.6504,3.6503,3.6503,0,3.6175,3.6183,3.6224,3.6235,3.6253,3.627,3.6284,3.6319,3.6331,3.6362,3.6366,3.6386,3.6404,3.6429,3.6455,3.6474,3.6484,3.647,3.6487,3.6477,3.6482,3.6481,3.6481,3.6466,3.6466,3.6465,3.6465,0,3.6142,3.6158,3.6178,3.6203,3.6219,3.6239,3.6262,3.6268,3.6307,3.6319,3.6337,3.6351,3.6377,3.6395,3.6418,3.6434,3.6454,3.6459,3.6458,3.6449,3.6437,3.6441,3.649,3.646,3.646,3.6461,3.6461,3.6461,3.6113,3.6121,3.6151,3.6171,3.6192,3.6211,3.6221,3.6245,3.6262,3.6287,3.6305,3.6322,3.6346,3.6379,3.6394,3.6406,3.6415,3.6414,3.6413,3.6412,3.6408,3.6436,3.641,3.641,3.641,3.641,3.641,0,3.6081,3.6102,3.612,3.615,3.6165,3.6185,3.621,3.6221,3.6236,3.6258,3.6275,3.6294,3.6312,3.6339,3.6358,3.6362,3.6372,3.6366,3.6365,3.6368,3.6399,3.6398,3.6357,3.6357,3.6357,3.6357,3.6357,3.6357,3.6066,3.6079,3.6098,3.6121,3.6141,3.6159,3.6171,3.6188,3.6206,3.6227,3.6242,3.626,3.6284,3.6304,3.632,3.6328,3.6332,3.6323,3.6333,3.6361,3.6366,3.6371,3.637,3.6324,3.6324,3.6301,3.6301,3.6301]}]]